CPA635 VHHH-WSSS

Flight info

Callsign CPA635
Flight time N/A
Altitude 38000
Route PECAN V12 EPDOS L642 EPKAL/K0865F400 L642 CN/K0865F390 L644 DUDIS/N0467F390 L644 MABLI N892 MABAL MABAL2B
Aircraft A346/H-SDE2E3FGHIJ3J4J5M1RWXY/LB1D1

Departure

Time 2026-05-08 06:39
Airport Hong Kong International Airport (VHHH)

Arrival

Time N/A
Airport Singapore Changi Airport (WSSS)
Time Latitude Longitude Altitude Speed Heading
2026-05-08 06:07 22.31878 113.93228 45 ft 0 kts 71°
2026-05-08 06:32 22.31877 113.93228 45 ft 1 kts 71°
2026-05-08 06:32 22.31869 113.93203 44 ft 4 kts 71°
2026-05-08 06:32 22.31861 113.93175 42 ft 4 kts 71°
2026-05-08 06:33 22.31854 113.93153 42 ft 4 kts 75°
2026-05-08 06:33 22.31853 113.93133 42 ft 4 kts 111°
2026-05-08 06:33 22.31865 113.93110 42 ft 3 kts 119°
2026-05-08 06:33 22.31873 113.93092 41 ft 4 kts 103°
2026-05-08 06:34 22.31873 113.93068 41 ft 4 kts 73°
2026-05-08 06:34 22.31864 113.93042 42 ft 4 kts 69°
2026-05-08 06:34 22.31861 113.93034 42 ft 0 kts 71°
2026-05-08 06:36 22.31862 113.93035 42 ft 0 kts 71°
2026-05-08 06:36 22.31865 113.93043 42 ft 2 kts 56°
2026-05-08 06:36 22.31882 113.93056 43 ft 4 kts 33°
2026-05-08 06:36 22.31917 113.93081 45 ft 7 kts 33°
2026-05-08 06:37 22.31969 113.93118 45 ft 11 kts 34°
2026-05-08 06:37 22.32031 113.93181 44 ft 14 kts 54°
2026-05-08 06:37 22.32109 113.93237 44 ft 15 kts 359°
2026-05-08 06:37 22.32179 113.93166 43 ft 16 kts 263°
2026-05-08 06:38 22.32141 113.93036 43 ft 19 kts 250°
2026-05-08 06:38 22.32062 113.92793 44 ft 65 kts 251°
2026-05-08 06:38 22.31838 113.92099 45 ft 128 kts 251°
2026-05-08 06:38 22.31481 113.90993 57 ft 179 kts 251°
2026-05-08 06:39 22.31073 113.89708 651 ft 180 kts 252°
2026-05-08 06:39 22.30653 113.88451 1405 ft 176 kts 251°
2026-05-08 06:39 22.30202 113.87223 2184 ft 174 kts 249°
2026-05-08 06:39 22.29751 113.86003 2722 ft 178 kts 253°
2026-05-08 06:40 22.29364 113.84676 3069 ft 193 kts 254°
2026-05-08 06:40 22.28944 113.83228 3429 ft 209 kts 253°
2026-05-08 06:40 22.28471 113.81672 3787 ft 226 kts 252°
2026-05-08 06:40 22.27947 113.80001 4124 ft 244 kts 251°
2026-05-08 06:41 22.27521 113.78136 4460 ft 264 kts 269°
2026-05-08 06:41 22.27733 113.76123 5030 ft 272 kts 276°
2026-05-08 06:41 22.27510 113.74099 5730 ft 276 kts 248°
2026-05-08 06:41 22.26654 113.72240 6557 ft 277 kts 240°
2026-05-08 06:42 22.25634 113.70464 7356 ft 280 kts 236°
2026-05-08 06:42 22.24490 113.68735 8136 ft 283 kts 233°
2026-05-08 06:42 22.23167 113.67150 8663 ft 287 kts 217°
2026-05-08 06:42 22.21356 113.66204 8975 ft 291 kts 195°
2026-05-08 06:43 22.19276 113.66000 8987 ft 293 kts 174°
2026-05-08 06:43 22.17262 113.66653 8991 ft 295 kts 151°
2026-05-08 06:43 22.15691 113.68085 9003 ft 297 kts 131°
2026-05-08 06:43 22.14355 113.69796 9004 ft 297 kts 131°
2026-05-08 06:44 22.13025 113.71502 8998 ft 297 kts 130°
2026-05-08 06:44 22.11685 113.73244 8993 ft 297 kts 130°
2026-05-08 06:44 22.10374 113.74991 8994 ft 297 kts 129°
2026-05-08 06:44 22.09523 113.76147 8994 ft 297 kts 129°
2026-05-08 06:45 22.08249 113.77902 8992 ft 297 kts 128°
2026-05-08 06:45 22.07068 113.79723 8987 ft 297 kts 118°
2026-05-08 06:45 22.06104 113.82553 9203 ft 307 kts 103°
2026-05-08 06:45 22.05795 113.84047 9746 ft 307 kts 102°
2026-05-08 06:46 22.05363 113.86300 10552 ft 308 kts 102°
2026-05-08 06:46 22.04920 113.88607 10985 ft 323 kts 102°
2026-05-08 06:46 22.04450 113.90947 11290 ft 340 kts 105°
2026-05-08 06:46 22.03513 113.93347 11566 ft 356 kts 123°
2026-05-08 06:47 22.01903 113.95440 11873 ft 371 kts 138°
2026-05-08 06:47 21.99915 113.97297 12257 ft 384 kts 141°
2026-05-08 06:47 21.97847 113.99156 12868 ft 390 kts 141°
2026-05-08 06:47 21.95758 114.01051 13573 ft 393 kts 142°
2026-05-08 06:48 21.93479 114.02692 14169 ft 396 kts 154°
2026-05-08 06:48 21.90924 114.03794 14760 ft 397 kts 166°
2026-05-08 06:48 21.88218 114.04409 15340 ft 399 kts 172°
2026-05-08 06:48 21.85449 114.04914 15914 ft 403 kts 173°
2026-05-08 06:49 21.82673 114.05410 16485 ft 407 kts 173°
2026-05-08 06:49 21.79846 114.05925 17047 ft 411 kts 172°
2026-05-08 06:49 21.76999 114.06457 17608 ft 415 kts 172°
2026-05-08 06:49 21.74067 114.07012 18171 ft 419 kts 172°
2026-05-08 06:50 21.71171 114.07562 18638 ft 422 kts 172°
2026-05-08 06:50 21.68266 114.08107 19127 ft 425 kts 173°
2026-05-08 06:50 21.65319 114.08357 19621 ft 425 kts 181°
2026-05-08 06:50 21.62407 114.08162 20116 ft 426 kts 189°
2026-05-08 06:51 21.59451 114.07543 20608 ft 428 kts 194°
2026-05-08 06:51 21.56569 114.06793 21082 ft 431 kts 195°
2026-05-08 06:51 21.53612 114.06002 21550 ft 434 kts 195°
2026-05-08 06:51 21.50662 114.05221 22023 ft 437 kts 195°
2026-05-08 06:52 21.47688 114.04455 22493 ft 440 kts 193°
2026-05-08 06:52 21.44650 114.03813 22950 ft 444 kts 190°
2026-05-08 06:52 21.41539 114.03348 23417 ft 447 kts 187°
2026-05-08 06:52 21.38403 114.03068 23810 ft 450 kts 184°
2026-05-08 06:53 21.35229 114.02856 24193 ft 453 kts 184°
2026-05-08 06:53 21.32023 114.02649 24596 ft 455 kts 184°
2026-05-08 06:53 21.28861 114.02444 24983 ft 457 kts 185°
2026-05-08 06:53 21.25640 114.02233 25374 ft 460 kts 185°
2026-05-08 06:54 21.22434 114.02021 25758 ft 462 kts 185°
2026-05-08 06:54 21.19213 114.01807 26139 ft 464 kts 185°
2026-05-08 06:54 21.15975 114.01591 26522 ft 467 kts 185°
2026-05-08 06:54 21.12716 114.01374 26896 ft 469 kts 185°
2026-05-08 06:55 21.09553 114.01165 27260 ft 471 kts 185°
2026-05-08 06:55 21.06114 114.00937 27652 ft 474 kts 185°
2026-05-08 06:55 21.02789 114.00716 28018 ft 476 kts 185°
2026-05-08 06:55 20.99450 114.00494 28372 ft 479 kts 185°
2026-05-08 06:56 20.96116 114.00214 28716 ft 481 kts 187°
2026-05-08 06:56 20.92789 113.99753 29068 ft 482 kts 190°
2026-05-08 06:56 20.89479 113.99103 29453 ft 483 kts 193°
2026-05-08 06:56 20.86187 113.98339 29960 ft 481 kts 193°
2026-05-08 06:57 20.82884 113.97567 30419 ft 479 kts 193°
2026-05-08 06:57 20.79600 113.96800 30810 ft 479 kts 194°
2026-05-08 06:57 20.76339 113.96040 31155 ft 480 kts 194°
2026-05-08 06:57 20.73075 113.95279 31511 ft 481 kts 194°
2026-05-08 06:58 20.69803 113.94518 31871 ft 481 kts 194°
2026-05-08 06:58 20.66531 113.93757 32230 ft 482 kts 194°
2026-05-08 06:58 20.63257 113.92995 32603 ft 482 kts 194°
2026-05-08 06:58 20.59975 113.92233 32959 ft 483 kts 194°
2026-05-08 06:59 20.56693 113.91471 33320 ft 484 kts 194°
2026-05-08 06:59 20.53401 113.90707 33699 ft 484 kts 194°
2026-05-08 06:59 20.50108 113.89944 34048 ft 484 kts 194°
2026-05-08 06:59 20.46862 113.89192 34364 ft 485 kts 194°
2026-05-08 07:00 20.43567 113.88430 34709 ft 485 kts 194°
2026-05-08 07:00 20.40268 113.87666 35058 ft 484 kts 195°
2026-05-08 07:00 20.36981 113.86906 35406 ft 484 kts 195°
2026-05-08 07:00 20.33687 113.86143 35752 ft 483 kts 195°
2026-05-08 07:01 20.30406 113.85384 36085 ft 483 kts 195°
2026-05-08 07:01 20.27124 113.84625 36393 ft 483 kts 195°
2026-05-08 07:01 20.23832 113.83863 36667 ft 484 kts 195°
2026-05-08 07:01 20.20535 113.83100 36934 ft 486 kts 195°
2026-05-08 07:02 20.17229 113.82336 37200 ft 487 kts 195°
2026-05-08 07:02 20.13908 113.81569 37471 ft 488 kts 195°
2026-05-08 07:02 20.10586 113.80802 37733 ft 489 kts 195°
2026-05-08 07:02 20.07254 113.80033 37914 ft 491 kts 195°
2026-05-08 07:03 20.00574 113.78490 37920 ft 491 kts 195°
2026-05-08 07:03 19.93888 113.76948 37921 ft 491 kts 195°
2026-05-08 07:04 19.87207 113.75411 37916 ft 491 kts 195°
2026-05-08 07:04 19.80523 113.73874 37917 ft 491 kts 195°
2026-05-08 07:05 19.73837 113.72339 37920 ft 491 kts 195°
2026-05-08 07:05 19.67159 113.70806 37913 ft 491 kts 195°
2026-05-08 07:06 19.60484 113.69275 37913 ft 491 kts 195°
2026-05-08 07:06 19.53809 113.67746 37908 ft 490 kts 194°
2026-05-08 07:07 19.47144 113.66220 37912 ft 490 kts 194°
2026-05-08 07:07 19.40474 113.64695 37909 ft 490 kts 194°
2026-05-08 07:08 19.33818 113.63174 37912 ft 489 kts 194°
2026-05-08 07:08 19.27162 113.61655 37910 ft 489 kts 194°
2026-05-08 07:09 19.20509 113.60138 37908 ft 489 kts 194°
2026-05-08 07:09 19.13862 113.58625 37907 ft 489 kts 194°
2026-05-08 07:10 19.07214 113.57114 37905 ft 488 kts 194°
2026-05-08 07:10 19.00572 113.55631 37901 ft 488 kts 192°
2026-05-08 07:11 18.93837 113.54571 37900 ft 489 kts 189°
2026-05-08 07:11 18.87144 113.53621 37913 ft 489 kts 189°
2026-05-08 07:12 18.80405 113.52664 37899 ft 489 kts 189°
2026-05-08 07:12 18.73658 113.51705 37898 ft 489 kts 189°
2026-05-08 07:13 18.66920 113.50745 37911 ft 489 kts 189°
2026-05-08 07:13 18.60268 113.49310 37899 ft 488 kts 197°
2026-05-08 07:14 18.53930 113.46796 37894 ft 486 kts 207°
2026-05-08 07:14 18.48067 113.43267 37895 ft 485 kts 216°
2026-05-08 07:15 18.42609 113.39093 37901 ft 485 kts 218°
2026-05-08 07:15 18.37177 113.34875 37901 ft 484 kts 217°
2026-05-08 07:16 18.31745 113.30678 37886 ft 484 kts 217°
2026-05-08 07:16 18.26300 113.26484 37901 ft 484 kts 217°
2026-05-08 07:17 18.20861 113.22303 37898 ft 484 kts 217°
2026-05-08 07:17 18.15419 113.18123 37899 ft 484 kts 217°
2026-05-08 07:18 18.09970 113.13942 37885 ft 485 kts 217°
2026-05-08 07:18 18.04519 113.09763 37899 ft 485 kts 217°
2026-05-08 07:19 17.99070 113.05589 37886 ft 485 kts 217°
2026-05-08 07:19 17.93613 113.01413 37876 ft 485 kts 217°
2026-05-08 07:20 17.88192 112.97269 37892 ft 485 kts 217°
2026-05-08 07:20 17.82745 112.93057 37890 ft 485 kts 217°
2026-05-08 07:21 17.77344 112.88789 37893 ft 486 kts 217°
2026-05-08 07:21 17.71940 112.84528 37888 ft 486 kts 217°
2026-05-08 07:22 17.66532 112.80276 37893 ft 486 kts 217°
2026-05-08 07:22 17.61117 112.76025 37889 ft 486 kts 217°
2026-05-08 07:23 17.55700 112.71777 37890 ft 486 kts 217°
2026-05-08 07:23 17.50280 112.67530 37892 ft 486 kts 217°
2026-05-08 07:24 17.44864 112.63289 37889 ft 486 kts 217°
2026-05-08 07:24 17.39426 112.59035 37888 ft 486 kts 217°
2026-05-08 07:25 17.34004 112.54796 37884 ft 486 kts 217°
2026-05-08 07:25 17.28511 112.50505 38152 ft 492 kts 217°
2026-05-08 07:26 17.25775 112.48369 38522 ft 490 kts 217°
2026-05-08 07:26 17.23047 112.46241 38854 ft 488 kts 217°
2026-05-08 07:26 17.20333 112.44124 39130 ft 486 kts 217°
2026-05-08 07:26 17.17657 112.42038 39384 ft 485 kts 217°
2026-05-08 07:27 17.14953 112.39930 39629 ft 484 kts 217°
2026-05-08 07:27 17.12246 112.37822 39851 ft 484 kts 216°
2026-05-08 07:27 17.09549 112.35723 39872 ft 483 kts 216°
2026-05-08 07:28 17.04153 112.31527 39880 ft 483 kts 216°
2026-05-08 07:28 16.98759 112.27339 39880 ft 483 kts 216°
2026-05-08 07:29 16.93331 112.23208 39880 ft 482 kts 216°
2026-05-08 07:29 16.87896 112.19091 39877 ft 482 kts 216°
2026-05-08 07:30 16.82466 112.14979 39880 ft 483 kts 215°
2026-05-08 07:30 16.77010 112.10850 39878 ft 483 kts 215°
2026-05-08 07:31 16.71574 112.06737 39879 ft 483 kts 216°
2026-05-08 07:31 16.66134 112.02624 39880 ft 483 kts 215°
2026-05-08 07:32 16.60695 111.98514 39882 ft 483 kts 216°
2026-05-08 07:32 16.55250 111.94402 39875 ft 483 kts 215°
2026-05-08 07:33 16.50721 111.90985 39878 ft 483 kts 215°
2026-05-08 07:33 16.45274 111.86877 39876 ft 483 kts 216°
2026-05-08 07:34 16.39820 111.82767 39875 ft 483 kts 216°
2026-05-08 07:34 16.34369 111.78663 39876 ft 483 kts 216°
2026-05-08 07:35 16.28919 111.74562 39875 ft 483 kts 216°
2026-05-08 07:35 16.23463 111.70460 39873 ft 483 kts 216°
2026-05-08 07:36 16.18008 111.66361 39875 ft 484 kts 216°
2026-05-08 07:36 16.12549 111.62261 39872 ft 484 kts 216°
2026-05-08 07:37 16.07087 111.58163 39873 ft 484 kts 216°
2026-05-08 07:37 16.01624 111.54066 39875 ft 484 kts 216°
2026-05-08 07:38 15.96167 111.49977 39875 ft 484 kts 216°
2026-05-08 07:38 15.90703 111.45885 39875 ft 483 kts 216°
2026-05-08 07:39 15.85211 111.41776 39874 ft 484 kts 216°
2026-05-08 07:39 15.79746 111.37690 39872 ft 484 kts 216°
2026-05-08 07:40 15.74286 111.33609 39871 ft 484 kts 216°
2026-05-08 07:40 15.68821 111.29529 39871 ft 484 kts 216°
2026-05-08 07:41 15.63389 111.25476 39874 ft 484 kts 216°
2026-05-08 07:41 15.57886 111.21372 39873 ft 484 kts 216°
2026-05-08 07:42 15.52411 111.17292 39873 ft 484 kts 216°
2026-05-08 07:42 15.46940 111.13219 39872 ft 484 kts 216°
2026-05-08 07:43 15.41497 111.09172 39872 ft 484 kts 216°
2026-05-08 07:43 15.35979 111.05069 39868 ft 485 kts 217°
2026-05-08 07:44 15.30536 111.00944 39867 ft 485 kts 217°
2026-05-08 07:44 15.25137 110.96824 39870 ft 485 kts 217°
2026-05-08 07:45 15.19693 110.92682 39870 ft 485 kts 217°
2026-05-08 07:45 15.14230 110.88534 39871 ft 485 kts 217°
2026-05-08 07:46 15.08784 110.84402 39866 ft 486 kts 217°
2026-05-08 07:46 15.03326 110.80265 39867 ft 486 kts 217°
2026-05-08 07:47 14.97860 110.76124 39866 ft 486 kts 217°
2026-05-08 07:47 14.92401 110.71992 39865 ft 486 kts 217°
2026-05-08 07:48 14.86936 110.67858 39868 ft 487 kts 217°
2026-05-08 07:48 14.81463 110.63720 39866 ft 487 kts 217°
2026-05-08 07:49 14.75956 110.59560 39867 ft 487 kts 217°
2026-05-08 07:49 14.70477 110.55423 39863 ft 487 kts 217°
2026-05-08 07:50 14.64995 110.51287 39866 ft 488 kts 217°
2026-05-08 07:50 14.59514 110.47153 39863 ft 488 kts 217°
2026-05-08 07:51 14.54003 110.43001 39862 ft 488 kts 217°
2026-05-08 07:51 14.48511 110.38864 39861 ft 489 kts 217°
2026-05-08 07:52 14.42974 110.34697 39860 ft 489 kts 217°
2026-05-08 07:52 14.37475 110.30561 39860 ft 489 kts 217°
2026-05-08 07:53 14.31969 110.26422 39859 ft 490 kts 217°
2026-05-08 07:53 14.26460 110.22284 39857 ft 490 kts 217°
2026-05-08 07:54 14.20943 110.18143 39858 ft 490 kts 217°
2026-05-08 07:54 14.15426 110.14005 39858 ft 491 kts 217°
2026-05-08 07:55 14.09903 110.09866 39856 ft 491 kts 217°
2026-05-08 07:55 14.04402 110.05748 39857 ft 491 kts 217°
2026-05-08 07:56 13.98828 110.01577 39858 ft 492 kts 217°
2026-05-08 07:56 13.93174 109.97687 39859 ft 492 kts 213°
2026-05-08 07:57 13.87328 109.93922 39859 ft 493 kts 213°
2026-05-08 07:57 13.81483 109.90168 39856 ft 493 kts 213°
2026-05-08 07:58 13.75634 109.86410 39857 ft 493 kts 213°
2026-05-08 07:58 13.69769 109.82642 39857 ft 493 kts 213°
2026-05-08 07:59 13.63935 109.78896 39855 ft 493 kts 213°
2026-05-08 07:59 13.58118 109.75163 39854 ft 493 kts 213°
2026-05-08 08:00 13.52289 109.71423 39852 ft 493 kts 213°
2026-05-08 08:00 13.46434 109.67670 39857 ft 493 kts 212°
2026-05-08 08:01 13.40634 109.63953 39854 ft 493 kts 212°
2026-05-08 08:01 13.34810 109.60224 39857 ft 493 kts 212°
2026-05-08 08:02 13.28989 109.56499 39863 ft 493 kts 212°
2026-05-08 08:02 13.23160 109.52770 39861 ft 493 kts 212°
2026-05-08 08:03 13.17334 109.49046 39867 ft 493 kts 212°
2026-05-08 08:03 13.11507 109.45324 39869 ft 492 kts 212°
2026-05-08 08:04 13.05689 109.41609 39871 ft 492 kts 212°
2026-05-08 08:04 12.99879 109.37902 39871 ft 492 kts 212°
2026-05-08 08:05 12.94059 109.34191 39871 ft 492 kts 212°
2026-05-08 08:05 12.88234 109.30479 39873 ft 492 kts 212°
2026-05-08 08:06 12.82395 109.26760 39875 ft 492 kts 212°
2026-05-08 08:06 12.76573 109.23056 39876 ft 492 kts 212°
2026-05-08 08:07 12.70739 109.19348 39876 ft 492 kts 212°
2026-05-08 08:07 12.64920 109.15649 39875 ft 491 kts 212°
2026-05-08 08:08 12.59153 109.11978 39872 ft 491 kts 212°
2026-05-08 08:08 12.53348 109.08287 39879 ft 491 kts 212°
2026-05-08 08:09 12.47538 109.04599 39881 ft 491 kts 212°
2026-05-08 08:09 12.41725 109.00914 39880 ft 491 kts 212°
2026-05-08 08:10 12.35920 108.97235 39886 ft 491 kts 212°
2026-05-08 08:10 12.30117 108.93559 39890 ft 490 kts 212°
2026-05-08 08:11 12.24311 108.89884 39896 ft 490 kts 212°
2026-05-08 08:11 12.19665 108.86944 39894 ft 490 kts 212°
2026-05-08 08:12 12.13857 108.83271 39899 ft 490 kts 212°
2026-05-08 08:12 12.08059 108.79608 39896 ft 489 kts 212°
2026-05-08 08:13 12.02270 108.75952 39900 ft 489 kts 212°
2026-05-08 08:13 11.96472 108.72292 39895 ft 490 kts 212°
2026-05-08 08:14 11.90670 108.68634 39894 ft 490 kts 212°
2026-05-08 08:14 11.84865 108.64975 39889 ft 490 kts 212°
2026-05-08 08:15 11.79063 108.61312 39885 ft 490 kts 212°
2026-05-08 08:15 11.73260 108.57649 39877 ft 490 kts 212°
2026-05-08 08:16 11.67450 108.53988 39872 ft 491 kts 212°
2026-05-08 08:16 11.61640 108.50331 39865 ft 491 kts 212°
2026-05-08 08:17 11.55864 108.46697 39862 ft 491 kts 212°
2026-05-08 08:17 11.50981 108.43627 39854 ft 492 kts 212°
2026-05-08 08:18 11.45160 108.39969 39848 ft 492 kts 212°
2026-05-08 08:18 11.39336 108.36310 39840 ft 491 kts 212°
2026-05-08 08:19 11.33522 108.32660 39839 ft 491 kts 212°
2026-05-08 08:19 11.27703 108.29008 39831 ft 491 kts 212°
2026-05-08 08:20 11.21887 108.25361 39826 ft 490 kts 212°
2026-05-08 08:20 11.16078 108.21719 39820 ft 490 kts 212°
2026-05-08 08:21 11.10260 108.18075 39816 ft 490 kts 212°
2026-05-08 08:21 11.04446 108.14435 39826 ft 490 kts 212°
2026-05-08 08:22 10.98631 108.10798 39811 ft 490 kts 212°
2026-05-08 08:22 10.92857 108.07187 39807 ft 490 kts 212°
2026-05-08 08:23 10.87132 108.03422 39816 ft 490 kts 214°
2026-05-08 08:23 10.81438 107.99606 39819 ft 490 kts 214°
2026-05-08 08:24 10.75733 107.95803 39793 ft 490 kts 213°
2026-05-08 08:24 10.70022 107.92010 39806 ft 490 kts 213°
2026-05-08 08:25 10.64304 107.88218 39795 ft 490 kts 213°
2026-05-08 08:25 10.58589 107.84430 39793 ft 490 kts 213°
2026-05-08 08:26 10.52876 107.80648 39804 ft 490 kts 213°